Location: Molveno
(46.1500°N, 10.9667°E)
Time: 01:04:35
(UTC+00:00)

USA 267 - Pass Details

Date: 05 July 2020
Orbit: 1102 x 1106 km, 123.0° (Epoch: 09 August)

Event Time Altitude Azimuth Distance (km) Brightness Sun altitude
Rises 19:47:44 0° 89° (E) 3,917 5.7 -6.0°
Reaches altitude 10° 19:50:20 10° 83° (E) 2,961 5.2 -6.3°
Maximum altitude 19:56:21 41° 16° (NNE) 1,549 4.4 -7.1°
Drops below altitude 10° 20:02:22 10° 309° (NW) 2,967 7.3 -7.8°
Sets 20:05:00 0° 303° (WNW) 3,926 8.1 -8.1°
